IW4CYE-7 Weather Reports


Display with metric or nautical units.
time (UTC)temp
F
wind
direction
speed
MPH
gust
MPH
rain 1hr
in
rain 24hr
in
rain mn
in
humidity
%
barometer
mb
20260906082721 82 286 0.0 1.0 0.00 0.00 0.00 76 1010.8
20260906081721 82 185 0.0 0.0 0.00 0.00 0.00 76 1010.8
20260906080721 81 220 0.0 0.0 0.00 0.00 0.00 79 1010.8
20260906075721 80 287 0.0 1.0 0.00 0.00 0.00 83 1010.8
20260906074721 79 283 0.0 0.0 0.00 0.00 0.00 84 1010.5
20260906073721 78 297 2.0 3.0 0.00 0.00 0.00 85 1010.5
20260906072721 78 283 0.0 0.0 0.00 0.00 0.00 86 1010.2
20260906071721 77 268 2.0 3.0 0.00 0.00 0.00 86 1010.2
20260906070721 77 286 2.0 2.0 0.00 0.00 0.00 87 1010.2
20260906065721 76 286 0.0 0.0 0.00 0.00 0.00 89 1010.2
20260906064721 75 280 0.0 0.0 0.00 0.00 0.00 90 1009.8
20260906063721 75 271 0.0 1.0 0.00 0.00 0.00 91 1009.8
20260906062721 74 279 0.0 0.0 0.00 0.00 0.00 91 1009.8
20260906061721 73 276 0.0 0.0 0.00 0.00 0.00 92 1009.8
20260906060721 72 238 0.0 0.0 0.00 0.00 0.00 93 1010.2
20260906055721 72 258 0.0 0.0 0.00 0.00 0.00 94 1009.8
20260906054721 71 281 0.0 0.0 0.00 0.00 0.00 94 1009.5
20260906053721 70 282 0.0 0.0 0.00 0.00 0.00 94 1009.5
20260906052721 70 281 0.0 1.0 0.00 0.00 0.00 94 1009.1
20260906051721 70 241 0.0 0.0 0.00 0.00 0.00 95 1009.5
20260906050721 70 276 0.0 0.0 0.00 0.00 0.00 94 1009.1
20260906045721 71 283 0.0 0.0 0.00 0.00 0.00 94 1009.1
20260906044721 71 283 0.0 0.0 0.00 0.00 0.00 94 1009.1
20260906043721 71 287 0.0 0.0 0.00 0.00 0.00 94 1008.8
20260906042722 73 289 0.0 0.0 0.00 0.00 0.00 95 1009.1
20260906041722 73 291 0.0 0.0 0.00 0.00 0.00 94 1008.8
20260906040722 73 291 0.0 0.0 0.00 0.00 0.00 94 1008.5
20260906035722 73 293 0.0 0.0 0.00 0.00 0.00 93 1008.5
20260906034722 74 294 0.0 0.0 0.00 0.00 0.00 92 1008.5
20260906033722 74 352 0.0 0.0 0.00 0.00 0.00 91 1008.1
20260906032722 74 68 0.0 0.0 0.00 0.00 0.00 90 1008.5
20260906031722 74 92 0.0 0.0 0.00 0.00 0.00 90 1008.1
20260906030722 74 97 0.0 1.0 0.00 0.00 0.00 89 1008.1
20260906025722 74 173 0.0 0.0 0.00 0.00 0.00 88 1008.1
20260906024722 74 68 0.0 1.0 0.00 0.00 0.00 89 1008.1
20260906023722 74 78 0.0 0.0 0.00 0.00 0.00 88 1008.1
20260906022722 74 105 0.0 0.0 0.00 0.00 0.00 87 1008.1
20260906021722 74 56 0.0 1.0 0.00 0.00 0.00 86 1008.1
20260906020722 74 83 0.0 0.0 0.00 0.00 0.00 86 1007.8
20260906015722 74 76 0.0 0.0 0.00 0.00 0.00 87 1008.1
20260906014722 72 140 0.0 1.0 0.00 0.00 0.00 92 1007.8
20260906013722 72 84 0.0 0.0 0.00 0.00 0.00 94 1007.8
20260906012722 72 84 0.0 0.0 0.00 0.00 0.00 95 1007.5
20260906011722 72 70 0.0 0.0 0.00 0.00 0.00 95 1007.5
20260906010722 72 70 0.0 0.0 0.00 0.00 0.00 95 1007.8
20260906005722 72 71 0.0 0.0 0.00 0.00 0.00 94 1007.8
20260906004722 72 71 0.0 0.0 0.00 0.00 0.00 93 1007.5
20260906003722 73 71 0.0 0.0 0.00 0.00 0.00 93 1007.5
20260906002722 73 70 0.0 0.0 0.00 0.00 0.00 93 1007.5
20260906001721 74 70 0.0 0.0 0.00 0.00 0.00 92 1007.5
20260906000722 74 70 0.0 0.0 0.00 0.00 0.00 91 1007.5
20260905235722 74 70 0.0 0.0 0.00 0.00 0.00 90 1007.5
20260905234721 74 70 0.0 0.0 0.00 0.00 0.00 88 1007.5
20260905233721 75 70 0.0 0.0 0.00 0.00 0.00 86 1007.5
20260905232721 76 70 0.0 0.0 0.00 0.00 0.00 84 1007.5
20260905231721 77 69 0.0 1.0 0.00 0.00 0.00 84 1007.5
20260905230721 77 66 0.0 0.0 0.00 0.00 0.00 83 1007.5
20260905225721 77 67 0.0 1.0 0.00 0.00 0.00 82 1007.1
20260905224721 76 87 0.0 0.0 0.00 0.00 0.00 83 1007.5
20260905223721 77 87 0.0 0.0 0.00 0.00 0.00 82 1007.1
20260905222721 77 71 0.0 1.0 0.00 0.00 0.00 80 1007.1
20260905221721 78 76 0.0 1.0 0.00 0.00 0.00 79 1007.1
20260905220721 78 76 0.0 0.0 0.00 0.00 0.00 78 1007.1
20260905215721 78 63 0.0 2.0 0.00 0.00 0.00 77 1006.8
20260905214721 78 80 0.0 1.0 0.00 0.00 0.00 76 1006.8
20260905213721 78 66 0.0 1.0 0.00 0.00 0.00 76 1006.8
20260905212721 78 68 0.0 1.0 0.00 0.00 0.00 74 1006.8
20260905211721 78 62 1.0 2.0 0.00 0.00 0.00 72 1006.8
20260905210721 78 74 1.0 2.0 0.00 0.00 0.00 71 1006.8
20260905205721 78 80 1.0 2.0 0.00 0.00 0.00 70 1006.4
20260905204721 78 80 0.0 1.0 0.00 0.00 0.00 70 1006.4
20260905203721 79 69 1.0 2.0 0.00 0.00 0.00 69 1006.8
20260905202721 78 90 0.0 0.0 0.00 0.00 0.00 68 1006.4
20260905201721 79 86 0.0 1.0 0.00 0.00 0.00 66 1006.4
20260905194721 80 86 0.0 0.0 0.00 0.00 0.00 63 1006.1
20260905193721 81 79 0.0 1.0 0.00 0.00 0.00 61 1006.1
20260905192721 81 86 1.0 2.0 0.00 0.00 0.00 61 1006.1
20260905191721 81 82 0.0 0.0 0.00 0.00 0.00 59 1006.1
20260905190721 82 61 1.0 2.0 0.00 0.00 0.00 58 1005.8
20260905185721 82 125 0.0 0.0 0.00 0.00 0.00 59 1005.8
20260905184721 82 98 0.0 0.0 0.00 0.00 0.00 59 1005.8
20260905183721 83 66 0.0 1.0 0.00 0.00 0.00 59 1005.8
20260905182721 83 64 0.0 1.0 0.00 0.00 0.00 59 1005.4
20260905181721 84 152 0.0 0.0 0.00 0.00 0.00 58 1005.4
20260905180721 85 74 1.0 1.0 0.00 0.00 0.00 55 1005.1
20260905175721 85 59 0.0 1.0 0.00 0.00 0.00 56 1005.1
20260905174721 86 185 0.0 1.0 0.00 0.00 0.00 55 1005.1
20260905173721 86 162 0.0 0.0 0.00 0.00 0.00 56 1005.1
20260905172721 87 131 0.0 0.0 0.00 0.00 0.00 55 1005.1
20260905171721 88 140 0.0 0.0 0.00 0.00 0.00 54 1004.7
20260905170721 89 60 1.0 2.0 0.00 0.00 0.00 52 1004.7
20260905165721 92 83 3.0 4.0 0.00 0.00 0.00 49 1004.4
20260905164721 93 246 0.0 0.0 0.00 0.00 0.00 42 1004.4
20260905163721 94 274 0.0 1.0 0.00 0.00 0.00 39 1004.4
20260905162721 94 69 0.0 1.0 0.00 0.00 0.00 37 1004.1
20260905161721 94 118 0.0 0.0 0.00 0.00 0.00 38 1004.1
20260905154721 95 146 0.0 1.0 0.00 0.00 0.00 36 1004.1
20260905153721 95 255 0.0 0.0 0.00 0.00 0.00 36 1004.1
20260905152721 95 286 1.0 1.0 0.00 0.00 0.00 36 1004.1
20260905151721 97 260 0.0 0.0 0.00 0.00 0.00 35 1003.7
20260905150721 96 198 2.0 2.0 0.00 0.00 0.00 34 1004.1
20260905145721 97 272 0.0 0.0 0.00 0.00 0.00 34 1004.1
20260905144721 96 287 1.0 2.0 0.00 0.00 0.00 33 1004.1
20260905143721 97 248 0.0 1.0 0.00 0.00 0.00 34 1004.1
20260905142721 98 262 3.0 5.0 0.00 0.00 0.00 33 1004.1
20260905141721 97 280 1.0 2.0 0.00 0.00 0.00 36 1004.1
20260905140721 98 172 0.0 1.0 0.00 0.00 0.00 34 1004.4
20260905134721 97 270 2.0 3.0 0.00 0.00 0.00 36 1004.7
20260905133721 95 84 1.0 2.0 0.00 0.00 0.00 35 1005.1
20260905132721 96 284 3.0 5.0 0.00 0.00 0.00 36 1004.7
20260905131721 95 285 0.0 1.0 0.00 0.00 0.00 34 1005.1
20260905130721 96 241 2.0 3.0 0.00 0.00 0.00 36 1005.1
20260905125721 94 271 3.0 4.0 0.00 0.00 0.00 35 1005.1
20260905124721 95 313 1.0 2.0 0.00 0.00 0.00 36 1005.1
20260905123721 94 268 4.0 5.0 0.00 0.00 0.00 36 1005.4
20260905122721 93 258 1.0 3.0 0.00 0.00 0.00 35 1005.4
20260905121721 93 277 6.0 8.0 0.00 0.00 0.00 35 1005.8
20260905114721 92 265 2.0 4.0 0.00 0.00 0.00 38 1005.8
20260905113721 93 324 3.0 4.0 0.00 0.00 0.00 36 1005.4
20260905112722 91 224 2.0 3.0 0.00 0.00 0.00 38 1005.8
20260905111722 90 288 1.0 2.0 0.00 0.00 0.00 39 1005.8
20260905110722 92 268 2.0 3.0 0.00 0.00 0.00 37 1005.8
20260905105722 91 268 1.0 3.0 0.00 0.00 0.00 38 1005.8
20260905104722 90 268 2.0 3.0 0.00 0.00 0.00 39 1005.8
20260905103722 90 252 0.0 1.0 0.00 0.00 0.00 42 1005.8
20260905102722 90 272 1.0 3.0 0.00 0.00 0.00 40 1005.8
20260905101722 90 299 3.0 4.0 0.00 0.00 0.00 39 1006.1
20260905100722 89 276 3.0 5.0 0.00 0.00 0.00 40 1006.1
20260905095722 88 293 2.0 3.0 0.00 0.00 0.00 40 1006.1
20260905094722 88 235 1.0 2.0 0.00 0.00 0.00 43 1006.1
20260905093722 88 284 2.0 3.0 0.00 0.00 0.00 43 1006.1
20260905092722 88 285 5.0 8.0 0.00 0.00 0.00 43 1006.1
20260905091722 88 269 4.0 6.0 0.00 0.00 0.00 43 1006.1
20260905090722 87 276 5.0 8.0 0.00 0.00 0.00 44 1006.1
20260905085722 86 357 3.0 5.0 0.00 0.00 0.00 46 1005.8
20260905084722 86 289 3.0 4.0 0.00 0.00 0.00 46 1005.8
20260905083722 85 291 1.0 3.0 0.00 0.00 0.00 47 1005.8